Weather History for Plant City, FL

Change the Weather History Date:

Friday, April 4, 2014

  Actual Average Record
Temperature  
Mean Temperature 73 °F -  
Max Temperature 86 °F 82 °F 91 °F (1945)
Min Temperature 60 °F 58 °F 41 °F (1936)
Cooling Degree Days 8    
Growing Degree Days 23 (Base 50)    
Moisture  
Dew Point 60 °F    
Average Humidity 55    
Maximum Humidity 100    
Minimum Humidity 33    
Precipitation  
Precipitation 0.01 in - - ()
Sea Level Pressure  
Sea Level Pressure 30.06 in    
Wind  
Wind Speed 3 mph (SSW)    
Max Wind Speed 12 mph    
Max Gust Speed 18 mph    
Visibility 10 miles    
Events      
Averages and records for this station are not official NWS values.
T = Trace of Precipitation, MM = Missing Value Source: NWS Daily Summary

Daily Weather History Graph

Daily Weather History Graph

Search for Another Location

Airport:

Trip Planner

Search our weather history database for the weather conditions in past years. The results will help you decide how hot, cold, wet, or windy it might be!

Date:

Astronomy

Apr. 04, 2014 Rise Set
Actual Time 7:15 AM EDT 7:48 PM EDT
Civil Twilight 6:51 AM EDT 8:11 PM EDT
Nautical Twilight 6:24 AM EDT 8:39 PM EDT
Astronomical Twilight 5:56 AM EDT 9:07 PM EDT
Moon 10:49 AM EDT (4/4) No Moon Set
Length of Visible Light 13h 19m
Length of Day
12h 32m
Waxing Crescent, 25% of the Moon is Illuminated
Apr 4
Waxing Crescent
Apr 7
First Quarter
Apr 15
Full
Apr 22
Last Quarter
Apr 29
New

Hourly Weather History & Observations

Time (EDT) Temp. Heat Index Dew Point Humidity Pressure Visibility Wind Dir Wind Speed Gust Speed Precip Events Conditions
12:15 AM 66.2 °F - - N/A% 30.11 in 10.0 mi Calm Calm - N/A   Clear
12:55 AM 64.4 °F - - N/A% 30.10 in 10.0 mi Calm Calm - N/A   Clear
1:15 AM 64.4 °F - - N/A% 30.09 in 10.0 mi Calm Calm - N/A   Clear
1:35 AM 64.4 °F - - N/A% 30.09 in 10.0 mi Calm Calm - N/A   Clear
1:55 AM 64.4 °F - - N/A% 30.08 in 10.0 mi Calm Calm - N/A   Clear
2:15 AM 62.6 °F - - N/A% 30.07 in 10.0 mi Calm Calm - N/A   Clear
2:35 AM 64.4 °F - - N/A% 30.07 in 10.0 mi Calm Calm - N/A   Clear
2:55 AM 62.6 °F - - N/A% 30.06 in 10.0 mi Calm Calm - N/A   Clear
3:15 AM 62.6 °F - - N/A% 30.06 in 7.0 mi Calm Calm - N/A   Clear
3:35 AM 60.8 °F - - N/A% 30.05 in 7.0 mi Calm Calm - N/A   Clear
3:55 AM 62.6 °F - - N/A% 30.05 in 10.0 mi Calm Calm - N/A   Clear
4:15 AM 62.6 °F - - N/A% 30.05 in 10.0 mi Calm Calm - N/A   Clear
4:35 AM 60.8 °F - - N/A% 30.05 in 10.0 mi SE 3.5 mph - N/A   Clear
4:55 AM 62.6 °F - - N/A% 30.05 in 10.0 mi SE 3.5 mph - N/A   Clear
5:15 AM 62.6 °F - - N/A% 30.05 in 10.0 mi SE 3.5 mph - N/A   Clear
5:35 AM 60.8 °F - - N/A% 30.05 in 7.0 mi ESE 3.5 mph - N/A   Clear
5:55 AM 60.8 °F - - N/A% 30.05 in 7.0 mi SE 4.6 mph - N/A   Clear
6:15 AM 60.8 °F - - N/A% 30.05 in 5.0 mi Calm Calm - N/A   Haze
6:35 AM 60.8 °F - - N/A% 30.04 in 3.0 mi SSE 3.5 mph - N/A   Clear
6:55 AM 62.6 °F - - N/A% 30.05 in 10.0 mi SSE 4.6 mph - N/A   Clear
7:15 AM 62.6 °F - - N/A% 30.06 in 10.0 mi South 3.5 mph - N/A   Clear
7:35 AM 64.4 °F - - N/A% 30.07 in 10.0 mi South 3.5 mph - N/A   Clear
7:55 AM 64.4 °F - - N/A% 30.07 in 10.0 mi Calm Calm - N/A   Clear
8:15 AM 64.4 °F - - N/A% 30.08 in 10.0 mi SE 3.5 mph - N/A   Clear
8:35 AM 66.2 °F - - N/A% 30.08 in 10.0 mi SE 3.5 mph - N/A   Clear
8:55 AM 69.8 °F - - N/A% 30.08 in 10.0 mi SSE 3.5 mph - N/A   Clear
9:15 AM 71.6 °F - 68.0 °F 88% 30.08 in 10.0 mi SSE 4.6 mph - N/A   Clear
9:35 AM 73.4 °F - 64.4 °F 73% 30.08 in 10.0 mi SSE 6.9 mph - N/A   Clear
9:55 AM 75.2 °F - 64.4 °F 69% 30.08 in 10.0 mi South 6.9 mph - N/A   Clear
10:15 AM 75.2 °F - 64.4 °F 69% 30.08 in 10.0 mi SSE 10.4 mph - N/A   Clear
10:35 AM 75.2 °F - 64.4 °F 69% 30.08 in 10.0 mi South 9.2 mph 16.1 mph N/A   Clear
10:55 AM 77.0 °F - 62.6 °F 61% 30.09 in 10.0 mi SSE 9.2 mph - N/A   Clear
11:15 AM 77.0 °F - 62.6 °F 61% 30.09 in 10.0 mi SSE 10.4 mph 18.4 mph N/A   Mostly Cloudy
11:35 AM 78.8 °F - 62.6 °F 57% 30.09 in 10.0 mi South 11.5 mph 18.4 mph N/A   Mostly Cloudy
11:55 AM 78.8 °F - 60.8 °F 54% 30.09 in 10.0 mi South 10.4 mph - N/A   Scattered Clouds
12:15 PM 80.6 °F 81.1 °F 59.0 °F 48% 30.09 in 10.0 mi South 8.1 mph 16.1 mph N/A   Scattered Clouds
12:35 PM 80.6 °F 81.1 °F 59.0 °F 48% 30.09 in 10.0 mi South 9.2 mph 18.4 mph N/A   Scattered Clouds
12:55 PM 82.4 °F 82.0 °F 57.2 °F 42% 30.09 in 10.0 mi SSE 8.1 mph - N/A   Scattered Clouds
1:15 PM 82.4 °F 82.0 °F 57.2 °F 42% 30.09 in 10.0 mi South 9.2 mph - N/A   Scattered Clouds
1:35 PM 84.2 °F 83.5 °F 57.2 °F 40% 30.09 in 10.0 mi SSE 5.8 mph - N/A   Scattered Clouds
2:15 PM 82.4 °F 81.7 °F 55.4 °F 39% 30.08 in 10.0 mi SW 5.8 mph - 0.01 in   Scattered Clouds
2:35 PM 84.2 °F 82.8 °F 53.6 °F 35% 30.07 in 10.0 mi Calm Calm - 0.01 in   Scattered Clouds
2:55 PM 86.0 °F 84.2 °F 53.6 °F 33% 30.06 in 10.0 mi SW 6.9 mph - 0.01 in   Mostly Cloudy
3:15 PM 84.2 °F 82.8 °F 53.6 °F 35% 30.05 in 10.0 mi South 3.5 mph - N/A   Mostly Cloudy
3:35 PM 84.2 °F 82.8 °F 53.6 °F 35% 30.04 in 10.0 mi Calm Calm - N/A   Scattered Clouds
3:55 PM 86.0 °F 84.5 °F 55.4 °F 35% 30.04 in 10.0 mi WSW 8.1 mph - N/A   Mostly Cloudy
4:15 PM 86.0 °F 84.5 °F 55.4 °F 35% 30.04 in 10.0 mi WNW 11.5 mph - N/A   Mostly Cloudy
4:55 PM 84.2 °F 83.0 °F 55.4 °F 37% 30.04 in 10.0 mi West 10.4 mph - N/A   Scattered Clouds
5:15 PM 84.2 °F 83.0 °F 55.4 °F 37% 30.03 in 10.0 mi WSW 5.8 mph - N/A   Clear
5:35 PM 84.2 °F 83.0 °F 55.4 °F 37% 30.03 in 10.0 mi West 8.1 mph - N/A   Clear
5:55 PM 84.2 °F 83.5 °F 57.2 °F 40% 30.03 in 10.0 mi SW 8.1 mph - N/A   Scattered Clouds
6:15 PM 82.4 °F 82.0 °F 57.2 °F 42% 30.02 in 10.0 mi West 10.4 mph - N/A   Clear
6:35 PM 82.4 °F 82.5 °F 59.0 °F 45% 30.02 in 10.0 mi WSW 6.9 mph - N/A   Clear
6:55 PM 80.6 °F 81.1 °F 59.0 °F 48% 30.02 in 10.0 mi WSW 5.8 mph - N/A   Clear
7:15 PM 80.6 °F 80.8 °F 57.2 °F 45% 30.03 in 10.0 mi West 5.8 mph - N/A   Clear
7:35 PM 78.8 °F - 60.8 °F 54% 30.03 in 10.0 mi WSW 5.8 mph - N/A   Clear
7:55 PM 77.0 °F - 60.8 °F 57% 30.04 in 10.0 mi WSW 5.8 mph - N/A   Clear
8:15 PM 75.2 °F - 62.6 °F 65% 30.04 in 10.0 mi WSW 5.8 mph - N/A   Clear
8:35 PM 75.2 °F - 62.6 °F 65% 30.04 in 10.0 mi WNW 3.5 mph - N/A   Clear
8:55 PM 75.2 °F - 60.8 °F 61% 30.05 in 10.0 mi WNW 5.8 mph - N/A   Clear
9:15 PM 73.4 °F - 60.8 °F 65% 30.05 in 10.0 mi WNW 3.5 mph - N/A   Clear
9:35 PM 73.4 °F - 60.8 °F 65% 30.05 in 10.0 mi WNW 4.6 mph - N/A   Clear
9:55 PM 73.4 °F - 62.6 °F 69% 30.06 in 10.0 mi WNW 4.6 mph - N/A   Clear
10:15 PM 71.6 °F - 62.6 °F 73% 30.06 in 10.0 mi NW 3.5 mph - N/A   Clear
10:35 PM 71.6 °F - 62.6 °F 73% 30.06 in 10.0 mi WNW 3.5 mph - N/A   Clear
10:55 PM 69.8 °F - 62.6 °F 78% 30.05 in 10.0 mi Calm Calm - N/A   Clear
11:15 PM 68.0 °F - 64.4 °F 88% 30.04 in 10.0 mi Calm Calm - N/A   Clear
11:35 PM 66.2 °F - 66.2 °F 100% 30.04 in 10.0 mi Calm Calm - N/A   Clear
11:55 PM 66.2 °F - - N/A% 30.05 in 10.0 mi Calm Calm - N/A   Clear